Location: Lombard
(41.8800°N, 88.0080°W)
Time: 06:38:14
(UTC-05:00)

deb Explorer IX - Pass Details

Date: 12 March 2024
Orbit: 512 x 901 km, 38.7° (Epoch: 23 April)

Event Time Altitude Azimuth Distance (km) Brightness Sun altitude
Exits shadow 04:05:54 17° 111° (ESE) 1,655 ? -33.5°
Drops below altitude 10° 04:07:26 10° 98° (E) 2,114 ? -33.2°
Sets 04:10:19 0° 85° (E) 3,115 ? -32.8°
